Simultaneous Nadir Overpasses (SNOs) Predictions

Prediction of SNOs between LANDSAT-8 and METOP-B Satellite Orbit:

Table of predicted SNOs for the next 14.0 days since TLE Epoch: 2/6/2021
Index Date (LANDSAT-8) Time (LANDSAT-8) Lat,Lon (LANDSAT-8) SZA (LANDSAT-8 ) Date (METOP-B) Time (METOP-B) Lat,Lon (METOP-B) SZA (METOP-B ) Distance(km) Time Diff (sec)
1 02/08/2021 07:56:15 -81.13, -79.22 82.36 02/08/2021 07:56:08 -81.13, -79.24 82.37 0.40 7
2 02/08/2021 08:45:40 81.16, 88.90 97.70 02/08/2021 08:46:46 81.16, 88.93 97.72 0.73 66
3 02/11/2021 02:41:12 80.90, 176.31 96.27 02/11/2021 02:39:58 80.99, 176.20 96.31 9.72 74
4 02/11/2021 03:30:29 -81.12, -12.91 83.29 02/11/2021 03:30:29 -81.13, -12.95 83.29 0.81 0
5 02/11/2021 04:19:54 81.15, 155.18 96.77 02/11/2021 04:21:07 81.15, 155.17 96.79 0.14 73
6 02/13/2021 22:15:17 81.12,-114.23 95.77 02/13/2021 22:14:10 81.11,-114.22 95.75 0.30 67
7 02/13/2021 23:04:43 -81.14, 53.74 84.20 02/13/2021 23:04:50 -81.13, 53.69 84.20 0.81 7
8 02/16/2021 17:49:32 81.10, -48.00 94.78 02/16/2021 17:48:32 81.11, -47.99 94.76 0.58 60
9 02/16/2021 18:38:58 -81.12, 119.99 85.19 02/16/2021 18:39:12 -81.13, 119.95 85.18 0.75 14
10 02/19/2021 13:23:46 81.11, 18.57 93.81 02/19/2021 13:22:53 81.11, 18.61 93.80 0.76 53



Historial Predications of SNOs between LANDSAT-8 and METOP-B
